Home   Weather   Ufa   Past weeks

Flag for Russia Past Weather in Ufa, Russia — Yesterday and Last 2 Weeks

Now
-8 °F

Light snow. Overcast.


Feels Like: -8 °F
Forecast: -1 / 16 °F
Wind: No wind

Location: Ufa

Current Time: Jan 19, 2017 at 2:03:30 pm

Latest Report: Jan 19, 2017 at 1:00 pm


Visibility: 2 mi

Pressure: 30.30 "Hg

Humidity: 77%

Dew Point: -13 °F

Location of UfaLocation

Past Weather in Ufa — Graph

°F

Ufa Temperature Yesterday

Maximum temperature yesterday: 0 °F (at 2:00 pm)
Minimum temperature yesterday: -15 °F (at 3:30 am)
Average temperature yesterday: -8 °F

High & Low Weather Summary for the Past Weeks

 TemperatureHumidityPressure
High28 °F (Jan 4, 5:00 pm)93% (Jan 4, 1:00 pm)30.66 "Hg (Jan 4, 1:00 pm)
Low-15 °F (Jan 16, 12:00 am)69% (Jan 18, 4:30 am)29.50 "Hg (Jan 4, 2:30 pm)
Average6 °F83%30.28 "Hg
* Reported Jan 4 12:00 pm — Jan 19 12:30 pm, Ufa, Weather by CustomWeather, © 2017

Note: Actual official high and low records may vary slightly from our data, if they occured in-between our weather recording intervals... More about our weather records

Advertising

Ufa Weather History for the Previous 24 Hours

Scroll right to see more
 ConditionsComfort  
Time TempWeatherWind HumidityBarometerVisibility
12:30 pm
Thu, Jan 19
-8 °FLight snow. Overcast.No wind77%30.30 "Hg2 mi
12:00 pm-8 °FLight snow. Overcast.No wind77%30.30 "Hg2 mi
11:30 am-9 °FLight snow. Overcast.No wind77%30.30 "Hg2 mi
11:00 am-9 °FLight snow. Overcast.1 mph77%30.30 "Hg2 mi
10:30 am-11 °FIce fog.No wind76%30.30 "Hg2 mi
10:00 am-13 °FIce fog.3 mph76%30.30 "Hg2 mi
9:30 am-13 °FPassing clouds.3 mph76%30.30 "HgN/A
9:00 am-9 °FPassing clouds.1 mph77%30.30 "HgN/A
8:30 am-8 °FPassing clouds.6 mph84%30.30 "HgN/A
8:00 am-6 °FOvercast.3 mph84%30.30 "HgN/A
7:30 am-6 °FLight snow. Overcast.3 mph84%30.30 "HgN/A
7:00 am-4 °FLight snow. Ice fog.3 mph77%30.33 "Hg3 mi
6:30 am-8 °FLight snow. Ice fog.3 mph77%30.33 "Hg3 mi
6:00 am-4 °FLight snow. Ice fog.3 mph77%30.33 "Hg3 mi
5:30 am-4 °FLight snow. Ice fog.1 mph84%30.33 "Hg3 mi
5:00 am-6 °FLight snow. Ice fog.3 mph84%30.33 "Hg2 mi
4:30 am-4 °FLight snow. Ice fog.3 mph84%30.33 "Hg3 mi
4:00 am0 °FLight snow. Ice fog.3 mph78%30.33 "Hg3 mi
3:30 am-2 °FLight snow. Ice fog.No wind84%30.33 "Hg2 mi
3:00 am-2 °FLight snow. Ice fog.1 mph77%30.33 "Hg2 mi
2:30 am-4 °FLight snow. Ice fog.1 mph77%30.33 "Hg1 mi
2:00 am-4 °FIce fog.1 mph77%30.33 "Hg1 mi
1:30 am-9 °FIce fog.1 mph77%30.33 "Hg1 mi
1:00 am-9 °FIce fog.1 mph77%30.36 "Hg1 mi
12:30 am-9 °FIce fog.No wind84%30.36 "Hg1 mi
12:00 am-8 °FIce fog.No wind77%30.36 "Hg1 mi
11:30 pm
Wed, Jan 18
-9 °FIce fog.No wind77%30.36 "Hg1 mi
11:00 pm-8 °FIce fog.1 mph77%30.36 "Hg1 mi
10:30 pm-8 °FIce fog.No wind77%30.36 "Hg1 mi
10:00 pm-8 °FIce fog.3 mph84%30.36 "Hg1 mi
9:30 pm-6 °FIce fog.3 mph77%30.36 "Hg1 mi
9:00 pm-6 °FIce fog.3 mph77%30.36 "Hg1 mi
8:30 pm-6 °FIce fog.1 mph77%30.36 "Hg1 mi
8:00 pm-8 °FIce fog.3 mph84%30.36 "Hg2 mi
7:30 pm-4 °FIce fog.6 mph77%30.39 "Hg3 mi
7:00 pm-2 °FIce fog.1 mph84%30.39 "Hg3 mi
6:30 pm-2 °FIce fog.3 mph84%30.39 "Hg3 mi
6:00 pm-2 °FIce fog.1 mph77%30.39 "Hg2 mi
5:30 pm-2 °FIce fog.3 mph77%30.39 "Hg2 mi
5:00 pm-4 °FIce fog.3 mph84%30.39 "Hg2 mi
4:30 pm-2 °FIce fog.1 mph84%30.39 "Hg2 mi
4:00 pm-2 °FIce fog.3 mph84%30.39 "Hg2 mi
3:30 pm-4 °FIce fog.No wind84%30.39 "Hg2 mi
3:00 pm-4 °FIce fog.No wind77%30.42 "Hg2 mi
2:30 pm-4 °FIce fog.No wind84%30.42 "Hg2 mi
2:00 pm0 °FIce fog.No wind78%30.42 "Hg2 mi
Weather by CustomWeather, © 2017

See weather overviewHow to use our weather pages